This demonstration page uses our WeatherBlox Daily Observations layout. Learn more.

Left ArrowRight Arrow

39.92423, -83.80882

Hourly Observations for September 24, 2021

Temp ( °F °C ) Dew Point ( °F °C ) Humidity (%) Winds ( mph kmh ) Pressure ( in mb ) Visibility ( mi km ) Precip ( " mm )
12:56 am 00:56 Cloudy 50 10 50 10 100 100 SSW 5 7 30.03 1017 10 16 N/A
1:56 am 01:56 Clear 49 9.4 49 9.4 100 100 N N/A 30.03 1017 10 16 N/A
2:56 am 02:56 Clear 48 8.9 48 8.9 100 100 SSW 3 6 30.03 1017 10 16 N/A
3:56 am 03:56 Clear 47 8.3 47 8.3 100 100 SW 7 11 30.04 1017 10 16 N/A
4:56 am 04:56 Clear 47 8.3 47 8.3 100 100 SW 8 13 30.05 1018 10 16 N/A
5:56 am 05:56 Clear 46 7.8 46 7.8 100 100 SW 8 13 30.07 1018 10 16 N/A
6:56 am 06:56 Clear 46 7.8 46 7.8 100 100 SW 7 11 30.08 1019 10 16 N/A
7:56 am 07:56 Sunny 46 7.8 46 7.8 100 100 SW 8 13 30.09 1019 10 16 N/A
8:56 am 08:56 Sunny 51 10.6 47 8.3 86 86 SW 8 13 30.10 1019 10 16 N/A
9:56 am 09:56 Sunny 58 14.4 48 8.9 70 70 WSW 8 13 30.11 1020 10 16 N/A
10:24 am 10:24 Mostly Sunny 63 17 46 8 56 56 WSW 12 19 30.09 1019 10 16 N/A
10:33 am 10:33 Mostly Cloudy with Haze 61 16 48 9 63 63 WSW 10 17 30.10 1019 1 2 N/A
10:43 am 10:43 Mostly Sunny 63 17 48 9 59 59 VRB 3 6 30.09 1019 10 16 0.03 0.76
10:56 am 10:56 Sunny 63 17.2 47 8.3 56 56 N N/A 30.11 1020 10 16 0.03 0.76
11:56 am 11:56 Sunny 68 20 45 7.2 44 44 WSW 9 15 30.11 1020 10 16 N/A
12:56 pm 12:56 Sunny 70 21.1 46 7.8 42 42 W 13 20 30.10 1019 10 16 N/A
1:56 pm 13:56 Sunny 71 21.7 47 8.3 42 42 WSW 12 19 30.09 1019 10 16 N/A
2:56 pm 14:56 Sunny 72 22.2 47 8.3 41 41 W 10 17 30.07 1018 10 16 N/A
3:56 pm 15:56 Sunny 73 22.8 46 7.8 38 38 VRB 7 11 30.05 1018 10 16 N/A
4:56 pm 16:56 Sunny 73 22.8 46 7.8 38 38 WSW 10 17 30.05 1018 10 16 N/A
5:56 pm 17:56 Sunny 71 21.7 45 7.2 39 39 SW 8 13 30.05 1018 10 16 N/A
6:56 pm 18:56 Sunny 68 20 49 9.4 51 51 S 5 7 30.05 1018 10 16 N/A
7:56 pm 19:56 Clear 61 16.1 50 10 67 67 S 6 9 30.06 1018 10 16 N/A
8:56 pm 20:56 Clear 61 16.1 50 10 67 67 S 7 11 30.07 1018 10 16 N/A
9:56 pm 21:56 Clear 59 15 50 10 72 72 S 3 6 30.06 1018 10 16 N/A
10:56 pm 22:56 Clear 57 13.9 50 10 78 78 S 5 7 30.06 1018 10 16 N/A
11:56 pm 23:56 Clear 57 13.9 51 10.6 81 81 S 5 7 30.04 1017 10 16 N/A

Powered by AerisWeather